Total_Precipitation_Accumulation
1.13 1.18 1.26 1.35 1.53 1.59 1.56 1.60 1.62 1.63 1.72 1.78 1.88 1.97 1.98 1.98 2.07 2.15 2.03 2.14 2.16 2.25 2.21 2.18 2.16 2.37 2.38 2.19 2.27 2.32 2.51 2.70 2.52 2.29 2.41 2.39 2.29 2.10 2.09 2.07 1.97 1.88 1.65
1.14 1.22 1.32 1.40 1.48 1.56 1.50 1.58 1.74 1.78 1.83 1.85 1.91 2.02 1.97 2.04 2.17 2.11 2.10 2.18 2.21 2.19 2.29 2.46 2.41 2.52 2.47 2.37 2.47 2.46 2.53 2.77 2.71 2.51 2.45 2.45 2.35 2.28 2.16 1.96 1.72 1.65 1.65
1.47 1.43 1.41 1.36 1.42 1.54 1.61 1.67 1.78 1.90 1.97 1.95 1.90 1.92 2.06 2.23 2.26 2.09 2.07 2.09 2.03 1.96 2.11 2.36 2.62 3.01 2.84 2.62 2.49 2.41 2.45 2.55 2.76 2.58 2.43 2.59 2.49 2.40 2.27 1.95 1.74 1.67 1.44
1.34 1.31 1.38 1.41 1.53 1.68 1.74 1.81 1.88 1.91 1.97 2.05 2.06 2.03 2.05 2.09 2.07 2.06 2.11 2.13 2.09 1.95 1.97 2.08 2.23 2.52 2.69 2.79 2.55 2.37 2.44 2.56 2.70 2.67 2.67 2.89 2.95 2.82 2.53 2.17 2.01 1.86 1.68
1.53 1.64 1.76 1.77 1.81 1.93 2.01 1.98 2.02 2.03 2.01 2.19 2.22 2.17 2.12 2.04 1.90 2.07 2.21 2.10 2.14 2.05 2.00 1.96 1.83 1.96 2.14 2.31 2.22 2.48 2.60 2.55 2.64 2.71 2.87 3.25 3.27 3.06 2.57 2.28 2.17 2.09 1.87
1.83 2.09 2.19 2.24 2.29 2.34 2.39 2.39 2.40 2.36 2.46 2.50 2.37 2.29 2.23 2.00 2.12 2.13 2.14 2.14 2.21 2.17 2.09 2.05 1.88 1.76 1.78 1.90 1.96 2.14 2.35 2.39 2.46 2.63 2.76 2.99 3.08 2.99 2.76 2.49 2.25 2.11 1.90
1.85 2.05 2.15 2.26 2.38 2.54 2.58 2.61 2.61 2.63 2.63 2.63 2.66 2.59 2.47 2.49 2.45 2.12 2.04 2.03 2.10 2.12 2.21 2.27 1.90 1.59 1.77 1.72 1.83 1.86 1.82 1.93 2.09 2.29 2.47 2.59 2.90 3.02 2.98 2.57 2.40 2.23 1.94
2.09 2.26 2.37 2.35 2.38 2.46 2.47 2.42 2.45 2.58 2.60 2.56 2.47 2.38 2.36 2.31 2.29 2.01 1.88 1.77 1.84 1.88 1.89 1.92 1.91 1.75 1.65 1.70 1.70 1.60 1.51 1.54 1.67 1.71 1.81 2.09 2.45 2.89 3.11 2.84 2.69 2.49 2.20
2.21 2.37 2.51 2.60 2.67 2.57 2.46 2.49 2.54 2.59 2.47 2.39 2.30 2.28 2.25 2.24 2.26 2.03 1.89 1.69 1.67 1.65 1.65 1.68 1.72 1.63 1.67 1.64 1.53 1.48 1.43 1.38 1.41 1.45 1.44 1.61 1.92 2.29 2.72 2.86 2.59 2.25 2.02
2.19 2.26 2.42 2.52 2.69 2.79 2.72 2.73 2.69 2.62 2.51 2.45 2.39 2.41 2.39 2.38 2.47 2.19 2.01 1.86 1.84 1.81 1.87 1.85 1.82 1.70 1.67 1.57 1.43 1.40 1.30 1.21 1.30 1.27 1.21 1.23 1.35 1.66 2.14 2.30 2.39 2.20 1.93
2.03 2.02 2.17 2.39 2.57 2.69 2.81 2.82 2.84 2.75 2.64 2.46 2.31 2.26 2.26 2.34 2.47 2.28 2.11 1.92 1.91 2.01 2.06 2.11 2.06 1.95 1.64 1.49 1.36 1.27 1.24 1.34 1.40 1.36 1.29 1.31 1.46 1.65 1.84 2.10 2.31 2.32 2.09
2.00 2.10 2.22 2.41 2.51 2.52 2.58 2.66 2.79 2.77 2.71 2.62 2.38 2.20 2.13 2.07 2.02 2.03 1.86 1.76 1.81 1.91 2.01 2.13 2.14 2.04 1.78 1.61 1.46 1.34 1.33 1.30 1.28 1.35 1.33 1.30 1.34 1.46 1.67 1.97 2.21 2.24 2.10
2.19 2.28 2.34 2.42 2.50 2.54 2.54 2.54 2.56 2.54 2.44 2.37 2.24 2.16 2.14 2.09 1.99 1.83 1.62 1.52 1.54 1.58 1.72 2.05 2.16 2.03 1.83 1.58 1.48 1.44 1.33 1.21 1.21 1.20 1.11 1.07 1.13 1.25 1.46 1.77 2.11 2.29 2.20
2.22 2.14 2.11 2.14 2.19 2.26 2.33 2.34 2.34 2.30 2.25 2.18 2.11 2.07 1.98 1.93 1.82 1.72 1.64 1.49 1.42 1.42 1.44 1.65 1.76 1.73 1.58 1.46 1.37 1.26 1.15 1.12 1.09 1.04 1.03 1.07 1.15 1.22 1.31 1.47 1.82 2.14 2.22
2.22 2.18 2.17 2.17 2.18 2.21 2.27 2.33 2.20 2.13 2.16 2.05 1.92 1.96 1.95 1.80 1.77 1.73 1.61 1.51 1.44 1.47 1.45 1.47 1.56 1.66 1.65 1.57 1.53 1.44 1.33 1.24 1.14 1.07 1.14 1.16 1.23 1.28 1.33 1.46 1.74 1.97 1.96
2.25 2.15 2.16 2.23 2.28 2.30 2.31 2.34 2.39 2.18 2.13 2.01 1.91 1.87 1.82 1.72 1.61 1.47 1.41 1.37 1.30 1.27 1.18 1.24 1.43 1.60 1.73 1.72 1.75 1.70 1.58 1.45 1.35 1.33 1.35 1.34 1.34 1.40 1.42 1.47 1.66 1.85 1.86
2.29 2.28 2.29 2.28 2.31 2.31 2.24 2.19 2.22 2.13 1.97 1.89 1.79 1.68 1.58 1.49 1.34 1.26 1.25 1.25 1.21 1.12 1.02 1.15 1.32 1.45 1.62 1.76 1.78 1.71 1.63 1.62 1.65 1.63 1.60 1.57 1.52 1.52 1.55 1.53 1.56 1.71 1.76
2.26 2.34 2.36 2.33 2.29 2.23 2.13 2.07 2.01 1.97 1.85 1.70 1.60 1.53 1.48 1.41 1.39 1.39 1.35 1.28 1.20 1.14 1.07 1.24 1.39 1.52 1.65 1.81 1.84 1.78 1.76 1.75 1.76 1.73 1.74 1.73 1.68 1.64 1.63 1.59 1.55 1.57 1.68
2.05 2.00 1.96 1.97 1.97 1.94 1.85 1.80 1.75 1.67 1.66 1.67 1.52 1.37 1.40 1.35 1.43 1.55 1.43 1.26 1.29 1.33 1.35 1.40 1.44 1.51 1.66 1.80 1.92 1.97 1.99 1.92 1.86 1.85 1.82 1.82 1.83 1.78 1.66 1.64 1.70 1.72 1.70
1.61 1.72 1.64 1.55 1.55 1.56 1.55 1.55 1.51 1.50 1.54 1.62 1.54 1.33 1.26 1.25 1.35 1.49 1.36 1.35 1.40 1.37 1.38 1.44 1.46 1.45 1.58 1.70 1.80 1.89 1.95 1.92 1.88 1.89 1.86 1.83 1.83 1.82 1.73 1.73 1.83 1.83 1.69
1.29 1.26 1.28 1.21 1.25 1.37 1.42 1.42 1.41 1.44 1.48 1.53 1.45 1.28 1.19 1.14 1.36 1.45 1.36 1.31 1.27 1.21 1.23 1.25 1.29 1.36 1.46 1.60 1.69 1.80 1.88 1.87 1.80 1.80 1.87 1.87 1.79 1.80 1.77 1.76 1.79 1.86 1.82
0.98 0.96 0.95 0.93 1.03 1.13 1.15 1.18 1.26 1.30 1.33 1.35 1.26 1.13 1.11 1.12 1.30 1.35 1.27 1.23 1.22 1.20 1.19 1.20 1.20 1.24 1.34 1.48 1.54 1.65 1.79 1.80 1.73 1.72 1.81 1.89 1.84 1.78 1.80 1.80 1.78 1.85 1.88
0.89 0.92 0.92 0.91 0.97 0.99 0.99 1.04 1.17 1.25 1.27 1.26 1.19 1.12 1.08 1.11 1.17 1.24 1.22 1.16 1.14 1.15 1.17 1.20 1.23 1.27 1.34 1.43 1.44 1.50 1.65 1.66 1.65 1.70 1.79 1.82 1.80 1.78 1.81 1.79 1.76 1.81 1.85
0.90 0.92 0.94 0.90 0.87 0.89 0.94 0.98 1.03 1.06 1.09 1.11 1.10 1.06 1.03 1.03 1.05 1.07 1.08 1.06 1.08 1.10 1.14 1.22 1.28 1.34 1.40 1.41 1.35 1.31 1.40 1.43 1.42 1.46 1.56 1.66 1.71 1.73 1.76 1.74 1.68 1.69 1.74
0.84 0.90 0.93 0.99 0.98 0.97 0.97 0.98 0.98 0.96 0.95 0.96 1.00 1.05 1.06 1.04 1.05 1.07 1.09 1.10 1.09 1.09 1.07 1.11 1.21 1.28 1.30 1.21 1.16 1.16 1.26 1.22 1.17 1.20 1.32 1.47 1.51 1.56 1.62 1.62 1.63 1.67 1.75
0.84 0.89 0.97 1.05 1.07 1.05 1.07 1.08 1.06 1.03 1.04 0.99 1.02 1.06 1.11 1.15 1.16 1.17 1.16 1.13 1.11 1.12 1.10 1.11 1.14 1.11 1.12 1.09 1.03 1.05 1.03 0.96 0.97 1.04 1.10 1.21 1.33 1.38 1.46 1.53 1.51 1.57 1.64